[[{"header":{"parameterUnit":"m.s-1","parameterCategory":1,"la1":30.2991,"la2":30.254,"lo1":-89.0895,"lo2":-89.0444,"dy":0.0017,"dx":0.0017,"nx":28,"ny":28,"refTime":"2023-10-14T21:00:00:Z","depth":0,"parameterNumber":2,"parameterNumberName":"U-component_of_WINDS"},"data":[0,0,0,0,0,0,0,0,0,0,0,0,0,0,0,0,0,0,0,0,0,0,0,0,0,0,0,0,0,0,0,0,0,0,0,0,0,0,0,0,0,0,0,0,0,0,0,0,0,0,0,0,0,0,0,0,0,0,1.6781,1.6782,0,1.6807,1.6808,1.6808,1.6821,1.6821,1.6821,1.6821,1.6847,1.6848,1.6848,0,0,0,0,0,0,0,0,0,0,0,0,0,1.6744,1.6744,1.6781,1.6782,1.6782,1.6807,1.6808,1.6808,1.6821,1.6821,1.6821,1.6821,1.6847,1.6848,1.6848,0,0,0,0,0,0,0,0,0,0,0,0,0,1.6764,1.6744,1.6781,1.6791,1.6793,1.6807,1.6808,1.6808,1.6821,1.6821,1.6821,1.6821,1.6847,1.6848,1.6849,1.6855,0,0,1.6852,1.6852,0,0,0,0,0,0,0,0,1.6763,1.6765,1.679,1.6791,1.6792,1.6811,1.6804,1.6824,1.6821,1.681,1.6821,1.6821,1.6835,1.6837,1.6842,1.6856,1.6857,1.6852,1.6852,1.6853,1.6853,0,0,0,0,0,0,0,1.6761,1.6764,1.6792,1.679,1.6792,1.6795,1.6798,1.6808,1.6822,1.6811,1.6812,1.6815,1.6836,1.6841,1.6842,1.6857,1.6852,1.6853,1.6853,1.6854,1.6879,1.6879,0,0,0,0,0,0,1.6758,1.6763,1.6791,1.6792,1.6777,1.6796,1.6799,1.6805,1.6822,1.6825,1.6815,1.6816,1.6839,1.6841,1.6843,1.6852,1.6853,1.6854,1.6854,1.6879,1.6879,1.6879,0,0,0,0,0,0,1.6757,1.6761,1.679,1.6778,1.6782,1.6796,1.6803,1.6805,1.681,1.6825,1.6828,1.6817,1.6839,1.6842,1.6852,1.6853,1.6854,1.6855,1.6879,1.6879,1.6879,1.687,0,0,0,0,0,0,1.6756,1.676,1.6762,1.6778,1.6782,1.6798,1.6803,1.6806,1.6812,1.6813,1.6828,1.6831,1.6839,1.685,1.6853,1.6855,1.6856,1.6879,1.6879,1.6879,1.687,1.6869,1.6869,0,0,0,0,0,1.6755,1.6758,1.6762,1.6766,1.6785,1.6798,1.68,1.681,1.6812,1.6815,1.6824,1.683,1.6853,1.6851,1.6854,1.6856,1.6879,1.6879,1.6879,1.687,1.6869,1.6869,0,0,0,0,0,0,1.6742,1.676,1.6765,1.6774,1.6784,1.68,1.6803,1.6809,1.6819,1.6819,1.6832,1.6835,1.6844,1.6851,1.6849,1.6864,1.6867,1.6867,1.6859,1.6858,1.6858,1.6855,1.6857,0,0,0,0,0,1.674,1.6748,1.6764,1.677,1.6775,1.6788,1.6794,1.6801,1.6812,1.6816,1.6827,1.6837,1.6847,1.6853,1.6863,1.6871,1.6875,1.6874,1.6874,1.6873,1.6874,1.688,1.688,1.688,1.688,1.688,0,0,1.6736,1.6747,1.6751,1.6768,1.6777,1.6785,1.6792,1.68,1.6807,1.6818,1.6828,1.6836,1.6849,1.6858,1.6863,1.6865,1.6875,1.6874,1.6873,1.6874,1.688,1.688,1.688,1.688,1.688,1.688,0,0,1.6733,1.6742,1.6749,1.6758,1.6772,1.6781,1.6782,1.6798,1.6804,1.6814,1.6823,1.6831,1.6847,1.6857,1.6863,1.6866,1.6872,1.6869,1.6866,1.6872,1.6872,1.6872,1.6873,1.6874,1.6869,1.6869,1.6869,0,1.6726,1.674,1.6751,1.676,1.6767,1.6778,1.6785,1.6793,1.6809,1.6814,1.6816,1.6838,1.6847,1.6859,1.686,1.6865,1.6868,1.6867,1.6871,1.6871,1.6871,1.6873,1.6873,1.6869,1.6869,1.6869,1.6869,0,1.6731,1.674,1.6744,1.6759,1.6767,1.6775,1.6788,1.6795,1.6802,1.6811,1.6822,1.6834,1.6847,1.685,1.6857,1.6864,1.6865,1.6869,1.6871,1.6871,1.6872,1.6873,1.6868,1.6868,1.6868,1.6869,0,0,1.6719,1.6743,1.6744,1.6751,1.6768,1.6776,1.6784,1.6797,1.6803,1.6814,1.6822,1.6836,1.6841,1.6848,1.6856,1.6861,1.6864,1.6865,1.6865,1.6864,1.6873,1.6869,1.687,1.6868,1.6868,1.6868,1.6872,0,1.6719,1.6734,1.6746,1.6757,1.6766,1.6778,1.6786,1.6797,1.6806,1.6816,1.6826,1.6836,1.6841,1.6846,1.6851,1.6862,1.6865,1.6862,1.6875,1.6876,1.6871,1.6871,1.6867,1.6869,1.6872,1.6873,1.6873,0,1.672,1.6731,1.6744,1.6761,1.6765,1.6772,1.6785,1.6794,1.6807,1.6814,1.6823,1.6832,1.6842,1.6845,1.686,1.6857,1.6864,1.687,1.687,1.6871,1.6874,1.6872,1.6871,1.6871,1.6874,1.6874,1.6874,0,1.671,1.6729,1.6739,1.6745,1.6765,1.677,1.6778,1.6792,1.68,1.6812,1.6817,1.683,1.6837,1.6847,1.6859,1.686,1.6873,1.6876,1.6879,1.6878,1.688,1.688,1.688,1.6885,1.6885,1.6885,1.6885,0,1.6708,1.6715,1.6735,1.6741,1.675,1.6764,1.6772,1.6782,1.6794,1.6803,1.6814,1.6822,1.6838,1.6848,1.6858,1.6869,1.6872,1.6877,1.688,1.6876,1.6875,1.688,1.688,1.6885,1.6885,1.6885,1.6885,0,1.6698,1.6711,1.6723,1.6742,1.6747,1.6753,1.6769,1.6776,1.6786,1.6797,1.68,1.6817,1.6829,1.6843,1.686,1.6866,1.6877,1.6881,1.6872,1.6874,1.6875,1.6875,1.6878,1.6879,1.6884,1.6884,1.6884,0,1.6695,1.6701,1.6721,1.6728,1.6736,1.6747,1.6755,1.677,1.6778,1.6795,1.6799,1.6813,1.6825,1.6844,1.6858,1.6871,1.6875,1.6876,1.6877,1.6874,1.6875,1.6875,1.6876,1.6875,1.6874,1.6874,1.6874,0,1.669,1.6697,1.6708,1.6722,1.6731,1.6743,1.6755,1.676,1.6777,1.6785,1.6799,1.6808,1.6826,1.6839,1.6855,1.6864,1.6872,1.6874,1.6875,1.6871,1.6866,1.6869,1.6871,1.6873,1.6874,1.6874,1.6874,1.6874,1.6684,1.669,1.6705,1.6717,1.6728,1.674,1.6747,1.6759,1.6771,1.6787,1.6795,1.6808,1.6823,1.6845,1.6854,1.6865,1.6867,1.6869,1.687,1.687,1.6869,1.6865,1.6868,1.6868,1.6868,1.6868,1.6868,0,1.6678,1.6689,1.6701,1.6718,1.6728,1.6735,1.6749,1.6757,1.6769,1.6782,1.6794,1.681,1.6824,1.6839,1.6854,1.686,1.6864,1.6863,1.6863,1.6865,1.6866,1.6863,1.686,1.686,1.686,1.686,1.686,1.686,1.6677,1.6688,1.6697,1.6714,1.6725,1.6738,1.6746,1.6757,1.6768,1.6785,1.6797,1.6807,1.6821,1.6838,1.6851,1.6855,1.686,1.6858,1.6863,1.6864,1.6864,1.6865,1.6863,1.6859,1.6859,1.6861,1.6861,1.6861]},{"header":{"parameterUnit":"m.s-1","parameterCategory":1,"la1":30.2991,"la2":30.254,"lo1":-89.0895,"lo2":-89.0444,"dy":0.0017,"dx":0.0017,"nx":28,"ny":28,"refTime":"2023-10-14T21:00:00:Z","depth":0,"parameterNumber":3,"parameterNumberName":"V-component_of_WINDS"},"data":[0,0,0,0,0,0,0,0,0,0,0,0,0,0,0,0,0,0,0,0,0,0,0,0,0,0,0,0,0,0,0,0,0,0,0,0,0,0,0,0,0,0,0,0,0,0,0,0,0,0,0,0,0,0,0,0,0,0,-8.3637,-8.3638,0,-8.3758,-8.3759,-8.3761,-8.3653,-8.3649,-8.3644,-8.364,-8.3758,-8.3765,-8.3773,0,0,0,0,0,0,0,0,0,0,0,0,0,-8.3307,-8.3313,-8.3636,-8.3638,-8.364,-8.3758,-8.3759,-8.3761,-8.3654,-8.3649,-8.3643,-8.3638,-8.3756,-8.3765,-8.3773,0,0,0,0,0,0,0,0,0,0,0,0,0,-8.3441,-8.3316,-8.3636,-8.3601,-8.3599,-8.3757,-8.3759,-8.3761,-8.3655,-8.3649,-8.3642,-8.3636,-8.3753,-8.3764,-8.3774,-8.3973,0,0,-8.3808,-8.3812,0,0,0,0,0,0,0,0,-8.3434,-8.3453,-8.3604,-8.3603,-8.3601,-8.3684,-8.3686,-8.3832,-8.3657,-8.3634,-8.364,-8.3633,-8.3739,-8.375,-8.3787,-8.3978,-8.3983,-8.3809,-8.3815,-8.382,-8.3823,0,0,0,0,0,0,0,-8.3424,-8.3447,-8.3684,-8.3607,-8.3605,-8.3577,-8.3589,-8.3713,-8.3721,-8.3635,-8.3628,-8.3644,-8.3736,-8.3777,-8.3789,-8.3985,-8.3808,-8.3818,-8.3825,-8.3829,-8.4346,-8.4353,0,0,0,0,0,0,-8.342,-8.344,-8.368,-8.3688,-8.35,-8.3588,-8.3601,-8.3664,-8.372,-8.3722,-8.3649,-8.3638,-8.3762,-8.3777,-8.3793,-8.403,-8.382,-8.383,-8.3836,-8.4339,-8.4347,-8.4355,0,0,0,0,0,0,-8.3413,-8.3442,-8.3675,-8.3562,-8.359,-8.3601,-8.3672,-8.367,-8.371,-8.373,-8.3731,-8.369,-8.3757,-8.3778,-8.393,-8.4032,-8.3835,-8.3845,-8.433,-8.4341,-8.4351,-8.4504,0,0,0,0,0,0,-8.3404,-8.344,-8.3517,-8.3565,-8.3596,-8.3812,-8.3678,-8.3677,-8.373,-8.3717,-8.3768,-8.377,-8.3754,-8.3914,-8.394,-8.4043,-8.3853,-8.4321,-8.4335,-8.4348,-8.449,-8.4519,-8.4544,0,0,0,0,0,-8.3393,-8.3554,-8.3522,-8.3551,-8.3693,-8.3818,-8.3836,-8.3815,-8.3739,-8.3815,-8.3828,-8.3769,-8.4017,-8.393,-8.3959,-8.4067,-8.4314,-8.4331,-8.4347,-8.4478,-8.4513,-8.4543,0,0,0,0,0,0,-8.3515,-8.3559,-8.3524,-8.3706,-8.376,-8.38,-8.3896,-8.3853,-8.3928,-8.3912,-8.3881,-8.3893,-8.4054,-8.4075,-8.3978,-8.4262,-8.4153,-8.4176,-8.4243,-8.4276,-8.4303,-8.4294,-8.3862,0,0,0,0,0,-8.3563,-8.3664,-8.3696,-8.3853,-8.3882,-8.3885,-8.3939,-8.3918,-8.3972,-8.3993,-8.4017,-8.407,-8.4159,-8.4219,-8.4302,-8.4493,-8.4502,-8.4581,-8.4608,-8.463,-8.465,-8.4753,-8.4788,-8.4409,-8.4409,-8.4408,0,0,-8.3664,-8.37,-8.3765,-8.3879,-8.3918,-8.4021,-8.3904,-8.4018,-8.4094,-8.4009,-8.4155,-8.4175,-8.4231,-8.4404,-8.4481,-8.4427,-8.4757,-8.465,-8.4668,-8.4676,-8.4773,-8.4809,-8.4841,-8.442,-8.4418,-8.4416,0,0,-8.39,-8.3938,-8.4073,-8.4116,-8.4178,-8.4179,-8.4212,-8.426,-8.427,-8.4417,-8.4356,-8.4444,-8.4599,-8.4643,-8.4685,-8.494,-8.4888,-8.4967,-8.5107,-8.5208,-8.5238,-8.5264,-8.5355,-8.5389,-8.4987,-8.4988,-8.4988,0,-8.4016,-8.4171,-8.4148,-8.4267,-8.4319,-8.425,-8.4387,-8.4428,-8.4513,-8.455,-8.4488,-8.4683,-8.4716,-8.4898,-8.496,-8.4996,-8.5032,-8.4961,-8.5236,-8.5262,-8.5286,-8.5373,-8.5407,-8.4997,-8.4996,-8.4995,-8.4994,0,-8.4311,-8.442,-8.4522,-8.4609,-8.4672,-8.4799,-8.4794,-8.486,-8.4835,-8.4842,-8.4992,-8.5029,-8.512,-8.5161,-8.5136,-8.5341,-8.5305,-8.5241,-8.513,-8.5332,-8.5413,-8.5446,-8.501,-8.5007,-8.5004,-8.5002,0,0,-8.4627,-8.4701,-8.4739,-8.4779,-8.4843,-8.4925,-8.5049,-8.514,-8.5198,-8.5259,-8.5361,-8.5495,-8.5437,-8.5485,-8.5464,-8.5552,-8.5752,-8.5476,-8.5477,-8.5527,-8.598,-8.6029,-8.6068,-8.5718,-8.5725,-8.573,-8.5975,0,-8.4866,-8.5084,-8.5067,-8.5273,-8.5372,-8.5309,-8.5417,-8.5467,-8.5478,-8.5562,-8.5572,-8.5668,-8.5583,-8.5612,-8.5697,-8.571,-8.5843,-8.5692,-8.5813,-8.5817,-8.5801,-8.611,-8.6161,-8.6392,-8.6007,-8.6012,-8.6016,0,-8.5173,-8.5249,-8.5465,-8.5516,-8.5557,-8.5655,-8.5737,-8.582,-8.5875,-8.5876,-8.5931,-8.5896,-8.6019,-8.5907,-8.6076,-8.5974,-8.6022,-8.6036,-8.6045,-8.6055,-8.5929,-8.6129,-8.6464,-8.6499,-8.6065,-8.6061,-8.6058,0,-8.5383,-8.5538,-8.5688,-8.5723,-8.5785,-8.5856,-8.5885,-8.5934,-8.599,-8.6062,-8.6098,-8.6182,-8.6228,-8.6293,-8.6281,-8.62,-8.6454,-8.634,-8.6458,-8.6459,-8.6514,-8.6511,-8.6863,-8.6545,-8.6545,-8.6544,-8.6543,0,-8.5651,-8.5786,-8.5783,-8.5875,-8.6024,-8.6003,-8.6151,-8.6171,-8.6216,-8.631,-8.6259,-8.6347,-8.6326,-8.6414,-8.6405,-8.6547,-8.6568,-8.6571,-8.6567,-8.6577,-8.6576,-8.6608,-8.6591,-8.6553,-8.6551,-8.655,-8.6548,0,-8.591,-8.5914,-8.6073,-8.612,-8.6135,-8.6243,-8.6282,-8.6369,-8.6375,-8.6495,-8.6521,-8.6532,-8.6632,-8.6627,-8.674,-8.6734,-8.691,-8.6886,-8.6892,-8.6887,-8.7006,-8.6995,-8.739,-8.7441,-8.709,-8.7094,-8.7096,0,-8.6082,-8.6185,-8.6244,-8.6305,-8.6339,-8.6437,-8.6495,-8.6478,-8.654,-8.6612,-8.669,-8.6787,-8.6864,-8.7027,-8.7043,-8.713,-8.7109,-8.7241,-8.7121,-8.7127,-8.7111,-8.7106,-8.7116,-8.7265,-8.7269,-8.7272,-8.7275,0,-8.6386,-8.6383,-8.647,-8.6559,-8.6631,-8.6699,-8.6761,-8.6813,-8.6802,-8.6874,-8.6979,-8.7039,-8.7156,-8.7252,-8.7335,-8.7362,-8.7318,-8.7313,-8.7344,-8.7355,-8.7354,-8.7357,-8.6957,-8.7303,-8.7301,-8.7298,-8.7297,-8.7296,-8.6607,-8.6696,-8.6753,-8.6851,-8.6897,-8.6957,-8.7041,-8.706,-8.7147,-8.7243,-8.7227,-8.7344,-8.7397,-8.7504,-8.754,-8.7629,-8.7582,-8.7628,-8.7639,-8.7651,-8.7665,-8.734,-8.7644,-8.7643,-8.7642,-8.7642,-8.7641,0,-8.6909,-8.6943,-8.7034,-8.7125,-8.7203,-8.7156,-8.7223,-8.729,-8.7395,-8.7449,-8.7526,-8.7646,-8.774,-8.7765,-8.7854,-8.7922,-8.7903,-8.7946,-8.7941,-8.7948,-8.7702,-8.7666,-8.7959,-8.7959,-8.7959,-8.7959,-8.7959,-8.7959,-8.7076,-8.7225,-8.7229,-8.7399,-8.7431,-8.7547,-8.759,-8.7644,-8.7688,-8.7825,-8.7904,-8.792,-8.7962,-8.8055,-8.8139,-8.8143,-8.8179,-8.823,-8.8227,-8.7997,-8.7965,-8.7935,-8.79,-8.8238,-8.8238,-8.8465,-8.8467,-8.8468]}]]